Regional Weather Roundup
Issued by NWS

Home | Current Version | Previous Version | Graphics & Text | Print | Product List | Glossary Off
Versions: 1 2 3 4 5 6 7 8 9 10 11 12 13 14 15 16 17 18 19 20 21 22 23 24 25 26 27 28 29 30 31 32 33 34 35 36 37 38 39 40 41 42 43 44 45 46 47 48 49 50

450
ASUS43 KMPX 251601
RWRMN
WEATHER ROUNDUP FOR MINNESOTA
NATIONAL WEATHER SERVICE TWIN CITIES/CHANHASSEN MN
1000 AM CST SUN FEB 25 2018


NOTE: "FAIR" INDICATES FEW OR NO CLOUDS BELOW 12,000 FEET WITH NO
SIGNIFICANT WEATHER AND/OR OBSTRUCTIONS TO VISIBILITY. N/A MEANS
CURRENT SKY AND/OR WEATHER CONDITIONS ARE NOT AVAILABLE.

MNZ060>063-068>070-251700-
   Twin Cities Metro

CITY           SKY/WX    TMP DP  RH WIND       PRES   REMARKS
TWIN CITIES    FAIR      19  11  70 W10G22    29.72R WCI   7
ST PAUL        FAIR      19  11  70 SW9       29.73R WCI   8
CRYSTAL        FAIR      18   9  68 W12       29.69R WCI   5
BLAINE         MOSUNNY   21  10  63 SW13G20   29.69R WCI   9
LAKEVILLE      FAIR      18  10  73 SW9G18    29.71R WCI   6
EDEN PRAIRIE   FAIR      18   9  68 W13       29.71R WCI   5
SOUTH ST PAUL  FAIR      20  11  68 W15       29.72R WCI   6
LAKE ELMO      FAIR      19  12  73 SW13      29.70R WCI   7
$$
MNZ001>005-007-008-013>017-022>024-027-028-251700-
   Northwest Minnesota

CITY           SKY/WX    TMP DP  RH WIND       PRES   REMARKS
BEMIDJI        LGT SNOW  18  14  83 W16       29.50R WCI   4
HALLOCK        CLOUDY    16  10  79 W9        29.52R WCI   4
ROSEAU         LGT SNOW  19  16  86 W8        29.48R WCI   9
WARROAD        FLURRIES  19  16  86 W8        29.47R WCI   9
THIEF RVR FALL FAIR      13   7  77 W13       29.54R WCI  -2
CROOKSTON      FAIR      14  10  85 W10       29.57R WCI   1
FOSSTON        FAIR      14   7  73 SW10      29.55R WCI   1
DETROIT LAKES  LGT SNOW  19  16  86 W9        29.59R WCI   9
MOORHEAD       CLOUDY    21  16  79 SW6       29.63R WCI  14
PARK RAPIDS    LGT SNOW  18  13  80 W16G23    29.54R WCI   3
MAHNOMEN       FAIR      16  12  86 W13       29.57R WCI   2
$$
MNZ006-009>011-018-025>026-251700-
   North Central Minnesota

CITY           SKY/WX    TMP DP  RH WIND       PRES   REMARKS
BAUDETTE       CLOUDY    21  17  84 W14G21    29.43R WCI   8
FLAG ISLAND    CLOUDY    21  16  79 NW14      29.43R WCI   8
INTL FALLS     CLOUDY    23  19  85 W13G21    29.40R WCI  11
WASKISH        LGT SNOW  19  18  93 W13       29.47R WCI   7
BIG FORK       FLURRIES  25  19  80 W7        29.43R WCI  17
LONGVILLE      CLOUDY    21  16  79 W12G21    29.52R WCI   9
GRAND RAPIDS   FLURRIES  24  18  77 W15G21    29.49R WCI  11
CRANE LAKE     CLOUDY    21  19  93 W6        29.39R WCI  14
ORR            CLOUDY    21  16  79 W12G18    29.37R WCI   9
COOK             N/A     21  18  86 W15       29.41R FOG     WCI   8
WALKER         FLURRIES  20  14  76 W14G20    29.51R WCI   7
$$
MNZ012-019>021-037-251700-
   Northeast Minnesota

CITY           SKY/WX    TMP DP  RH WIND       PRES   REMARKS
DULUTH         CLOUDY    23  18  81 W21G33    29.44R WCI   8
ELY            CLOUDY    21  18  86 W21G28    29.35R WCI   6
HIBBING        CLOUDY    22  18  85 W12G21    29.43R WCI  10
EVELETH        CLOUDY    21  18  86 W18G25    29.42R WCI   6
DULUTH HARBOR  CLOUDY    27  21  80 W20G29    29.50R WCI  13
TWO HARBORS    CLOUDY    28  21  74 W17G26    29.41R WCI  16
SILVER BAY     CLOUDY    27  21  80 W10G23    29.36R HAZE    WCI  17
GRAND MARAIS     N/A     29  20  69 SW20G29   29.30R WCI  16
G MARAIS ARPRT CLOUDY    23  14  68 W15G26    29.23R HAZE    WCI  10
$$
MNZ029>031-032-039>041-046>048-054>057-064-251700-
   West Central Minnesota

CITY           SKY/WX    TMP DP  RH WIND       PRES   REMARKS
FERGUS FALLS   CLOUDY    18  18 100 W13       29.65R WCI   4
WHEATON        SUNNY     23  18  80 W13G21    29.70R WCI  11
MORRIS         CLOUDY    21  18  86 W13       29.68R WCI   9
ALEXANDRIA     CLOUDY    18  13  80 W13       29.64R WCI   5
ELBOW LAKE     CLOUDY    19  16  87 SW14      29.65R WCI   6
WADENA         FLURRIES  14  10  85 W13G20    29.59R WCI   0
GLENWOOD       CLOUDY    18  12  79 W16       29.65S WCI   3
APPLETON       CLOUDY    21  16  79 W14       29.71S WCI   8
BENSON         CLOUDY    18  10  73 W14       29.70R WCI   4
MADISON        PTSUNNY   23  16  74 W13       29.73R WCI  11
WILLMAR        CLOUDY    18  12  79 W10       29.72R WCI   6
$$
MNZ033>034-036-042>043-049>051-058-059-251700-
   Central Minnesota

CITY           SKY/WX    TMP DP  RH WIND       PRES   REMARKS
ST CLOUD       FAIR      15   8  73 W12       29.66R WCI   2
SAUK CENTRE    FLURRIES  15  10  81 W16       29.65R WCI  -1
PAYNESVILLE    CLOUDY    15  11  83 W16       29.69R WCI  -1
AITKIN         CLOUDY    19  14  79 SW12G20   29.54R WCI   7
PINE RIVER     LGT SNOW  19  12  73 W9G20     29.59R WCI   9
BRAINERD       CLOUDY    21  14  74 W13       29.57R HAZE    WCI   9
STAPLES        CLOUDY    16   9  73 W12       29.60R WCI   3
LONG PRAIRIE   CLOUDY    18  12  79 SW10G20   29.63R WCI   6
LITTLE FALLS   CLOUDY    18   7  62 W9        29.64R WCI   6
LITCHFIELD     CLOUDY    18  12  79 W12G17    29.70R WCI   5
BUFFALO        FAIR      17   9  69 SW9       29.70R WCI   6
MAPLE LAKE     PTSUNNY   18  11  73 SW8       29.69R WCI   8
HUTCHINSON     FAIR      17  10  75 W16       29.72R WCI   1
$$
MNZ037-044-045-052-053-251700-
   East Central Minnesota

CITY           SKY/WX    TMP DP  RH WIND       PRES   REMARKS
PRINCETON      CLOUDY    19  12  73 SW13      29.65R WCI   7
CAMBRIDGE        N/A     21  10  63 W9        29.65R WCI  11
RUSH CITY      CLOUDY    21  15  78 SW9       29.63R WCI  11
MOOSE LAKE     FLURRIES  25  18  74 SW15G21   29.52R WCI  12
HINCKLEY       FLURRIES  23  19  86 SW17      29.59R WCI   9
CLOQUET        FLURRIES  23  18  80 W16G23    29.48R WCI  10
MCGREGOR       CLOUDY    23  18  80 SW8G17    29.53R WCI  14
$$
MNZ071>073-080-081-089-090-097-098-251700-
   Southwest Minnesota

CITY           SKY/WX    TMP DP  RH WIND       PRES   REMARKS
MONTEVIDEO     CLOUDY    21  16  79 NW13      29.73R WCI   9
GRANITE FALLS  CLOUDY    20  15  80 SW17      29.74R WCI   5
CANBY          MOSUNNY   24  17  77 SW12G18   29.74S WCI  12
REDWOOD FALLS  PTSUNNY   17  11  77 W22       29.75R WCI   0
OLIVIA         MOSUNNY   21  14  73 W18       29.72R WCI   6
PIPESTONE      CLOUDY    18  12  79 W17       29.77R WCI   2
WORTHINGTON    SUNNY     21  11  65 W9        29.80R WCI  11
JACKSON        SUNNY     19  12  73 W24G31    29.77R HAZE    WCI   2
TRACY          SUNNY     20  14  80 W15       29.75R WCI   6
SLAYTON        SUNNY     18  12  79 W16       29.78R WCI   3
$$
MNZ065>067-074>077-082>085-091>093-251700-
   South Central Minnesota

CITY           SKY/WX    TMP DP  RH WIND       PRES   REMARKS
MANKATO        FAIR      19  11  70 W17       29.76R WCI   4
NEW ULM        SUNNY     18  10  73 W17       29.75R WCI   2
ST JAMES       SUNNY     19  12  73 SW20G25   29.78R HAZE    WCI   4
FAIRMONT       SUNNY     20  13  74 W21       29.79R WCI   4
GLENCOE        FAIR      17  10  75 SW10      29.72R WCI   5
FARIBAULT      FAIR      19  10  68 SW9       29.75R WCI   9
OWATONNA       FAIR      18  10  73 SW14      29.75R WCI   4
WASECA         FAIR      18  12  79 SW15      29.77R WCI   3
ALBERT LEA     FAIR      19  12  73 SW9       29.77R WCI   9
$$
MNZ078>079-086>088-094>096-251700-
   Southeast Minnesota

CITY           SKY/WX    TMP DP  RH WIND       PRES   REMARKS
ROCHESTER      FAIR      18  12  77 W18       29.74R WCI   2
RED WING       FAIR      21  10  63 W14       29.73R WCI   8
STANTON        FAIR      20  12  69 SW12      29.73R WCI   8
DODGE CENTER   FAIR      18  10  73 SW16      29.73R WCI   3
WINONA         FAIR      25  14  63 SW13G18   29.75R WCI  13
AUSTIN         FAIR      19  12  73 W13       29.77R WCI   7
PRESTON        FAIR      20  14  77 SW13      29.76R WCI   7
$$
ABBREVIATIONS USED IN REMARKS
   TC - TEMPERATURES IN CELSIUS
  WCI - WIND CHILL INDEX
   HX - HEAT INDEX
  VSB - VISIBILITY
$$




USA.gov is the U.S. government's official web portal to all federal, state and local government web resources and services.